Saint Bonnet de Bellac- Haute Vienne - France
Donnes mto: dimanche, 03/06/2012
Date Horaire Temp. E. Hum. E. P.atmo. Pluie Vent Direction Direction Ensoleilleme Solaire P. de rose Temp au vent Rafales
03/06/2012 00:00 18,6 C 89 % 1009,4 hPa 0,0 mm 14,0 km/h (3 Bft) SO 225 0 min 0 W/m 16,7 C 18,6 C 25,2 km/h (4 Bft)
03/06/2012 00:10 18,6 C 90 % 1009,9 hPa 0,0 mm 7,9 km/h (2 Bft) S 180 0 min 0 W/m 16,9 C 18,6 C 7,9 km/h (2 Bft)
03/06/2012 00:20 18,6 C 89 % 1010,3 hPa 0,0 mm 5,8 km/h (2 Bft) S-SO 202 0 min 0 W/m 16,7 C 18,6 C 8,3 km/h (2 Bft)
03/06/2012 00:30 18,5 C 89 % 1010,6 hPa 0,0 mm 4,3 km/h (1 Bft) O-SO 247 0 min 0 W/m 16,7 C 18,5 C 7,9 km/h (2 Bft)
03/06/2012 00:40 18,4 C 89 % 1010,3 hPa 0,0 mm 1,1 km/h (1 Bft) S-SO 202 0 min 0 W/m 16,6 C 18,4 C 4,0 km/h (1 Bft)
03/06/2012 00:50 18,3 C 89 % 1011,2 hPa 0,0 mm 11,9 km/h (2 Bft) O-SO 247 0 min 0 W/m 16,5 C 18,3 C 13,7 km/h (3 Bft)
03/06/2012 01:00 18,0 C 89 % 1011,8 hPa 0,0 mm 10,1 km/h (2 Bft) SO 225 0 min 0 W/m 16,2 C 18,0 C 16,6 km/h (3 Bft)
03/06/2012 01:10 17,9 C 90 % 1011,9 hPa 0,0 mm 8,3 km/h (2 Bft) S-SO 202 0 min 0 W/m 16,2 C 17,9 C 16,2 km/h (3 Bft)
03/06/2012 01:20 17,8 C 90 % 1012,0 hPa 0,0 mm 7,6 km/h (2 Bft) S-SO 202 0 min 0 W/m 16,1 C 17,8 C 9,7 km/h (2 Bft)
03/06/2012 01:30 17,6 C 90 % 1012,0 hPa 0,1 mm 9,4 km/h (2 Bft) SO 225 0 min 0 W/m 15,9 C 17,6 C 9,4 km/h (2 Bft)
03/06/2012 01:40 17,4 C 91 % 1012,0 hPa 0,1 mm 11,2 km/h (2 Bft) SO 225 0 min 0 W/m 15,9 C 17,4 C 21,6 km/h (4 Bft)
03/06/2012 01:50 17,3 C 91 % 1012,2 hPa 0,1 mm 7,6 km/h (2 Bft) O-SO 247 0 min 0 W/m 15,8 C 17,3 C 7,6 km/h (2 Bft)
03/06/2012 02:00 17,3 C 91 % 1012,2 hPa 0,2 mm 14,0 km/h (3 Bft) SO 225 0 min 0 W/m 15,8 C 17,3 C 19,4 km/h (3 Bft)
03/06/2012 02:10 17,1 C 91 % 1012,1 hPa 0,9 mm 6,5 km/h (2 Bft) SO 225 0 min 0 W/m 15,6 C 17,1 C 9,0 km/h (2 Bft)
03/06/2012 02:20 16,9 C 92 % 1012,0 hPa 0,4 mm 10,1 km/h (2 Bft) O-SO 247 0 min 0 W/m 15,6 C 16,9 C 10,4 km/h (2 Bft)
03/06/2012 02:30 16,9 C 92 % 1012,0 hPa 0,3 mm 7,2 km/h (2 Bft) O-SO 247 0 min 0 W/m 15,6 C 16,9 C 9,4 km/h (2 Bft)
03/06/2012 02:40 16,8 C 92 % 1011,6 hPa 0,1 mm 4,0 km/h (1 Bft) S 180 0 min 0 W/m 15,5 C 16,8 C 6,5 km/h (2 Bft)
03/06/2012 02:50 16,8 C 92 % 1011,6 hPa 0,2 mm 2,9 km/h (1 Bft) S-SO 202 0 min 0 W/m 15,5 C 16,8 C 4,3 km/h (1 Bft)
03/06/2012 03:02 16,8 C 93 % 1011,5 hPa 0,1 mm 6,5 km/h (2 Bft) SO 225 0 min 0 W/m 15,7 C 16,8 C 9,0 km/h (2 Bft)
03/06/2012 03:10 16,6 C 93 % 1011,4 hPa 0,1 mm 6,1 km/h (2 Bft) SO 225 0 min 0 W/m 15,5 C 16,6 C 8,6 km/h (2 Bft)
03/06/2012 03:20 16,5 C 93 % 1011,3 hPa 0,0 mm 4,7 km/h (1 Bft) S-SO 202 0 min 0 W/m 15,4 C 16,5 C 7,9 km/h (2 Bft)
03/06/2012 03:30 16,3 C 93 % 1011,3 hPa 0,1 mm 5,4 km/h (2 Bft) S-SO 202 0 min 0 W/m 15,2 C 16,3 C 9,7 km/h (2 Bft)
03/06/2012 03:40 16,3 C 93 % 1010,9 hPa 0,0 mm 3,2 km/h (1 Bft) SO 225 0 min 0 W/m 15,2 C 16,3 C 6,1 km/h (2 Bft)
03/06/2012 03:50 16,2 C 93 % 1011,0 hPa 0,0 mm 3,6 km/h (1 Bft) SO 225 0 min 0 W/m 15,1 C 16,2 C 8,3 km/h (2 Bft)
03/06/2012 04:00 16,1 C 93 % 1011,1 hPa 0,0 mm 8,6 km/h (2 Bft) S-SO 202 0 min 0 W/m 15,0 C 16,1 C 18,7 km/h (3 Bft)
03/06/2012 04:10 15,9 C 93 % 1011,1 hPa 0,0 mm 6,8 km/h (2 Bft) O-SO 247 0 min 0 W/m 14,8 C 15,9 C 16,6 km/h (3 Bft)
03/06/2012 04:20 15,8 C 93 % 1011,1 hPa 0,0 mm 4,7 km/h (1 Bft) SO 225 0 min 0 W/m 14,7 C 15,8 C 10,4 km/h (2 Bft)
03/06/2012 04:30 15,8 C 93 % 1010,7 hPa 0,0 mm 1,4 km/h (1 Bft) NO 315 0 min 0 W/m 14,7 C 15,8 C 6,1 km/h (2 Bft)
03/06/2012 04:40 15,6 C 93 % 1010,3 hPa 0,0 mm 3,2 km/h (1 Bft) O 270 0 min 0 W/m 14,5 C 15,6 C 8,6 km/h (2 Bft)
03/06/2012 04:50 15,6 C 93 % 1010,3 hPa 0,0 mm 4,3 km/h (1 Bft) O 270 0 min 0 W/m 14,5 C 15,6 C 6,8 km/h (2 Bft)
03/06/2012 05:00 15,5 C 93 % 1010,3 hPa 0,1 mm 3,2 km/h (1 Bft) O-SO 247 0 min 0 W/m 14,4 C 15,5 C 3,6 km/h (1 Bft)
03/06/2012 05:10 15,4 C 92 % 1010,4 hPa 0,0 mm 1,4 km/h (1 Bft) SO 225 0 min 0 W/m 14,1 C 15,4 C 4,0 km/h (1 Bft)
03/06/2012 05:20 15,3 C 92 % 1010,8 hPa 0,0 mm 5,0 km/h (1 Bft) S-SO 202 0 min 0 W/m 14,0 C 15,3 C 9,4 km/h (2 Bft)
03/06/2012 05:30 15,3 C 92 % 1010,9 hPa 0,0 mm 5,4 km/h (2 Bft) S-SO 202 0 min 0 W/m 14,0 C 15,3 C 6,8 km/h (2 Bft)
03/06/2012 05:40 15,3 C 92 % 1011,1 hPa 0,1 mm 4,0 km/h (1 Bft) SO 225 0 min 0 W/m 14,0 C 15,3 C 4,0 km/h (1 Bft)
03/06/2012 05:50 15,3 C 93 % 1011,1 hPa 0,1 mm 7,2 km/h (2 Bft) O-SO 247 0 min 0 W/m 14,2 C 15,3 C 7,2 km/h (2 Bft)
03/06/2012 06:00 15,2 C 93 % 1011,2 hPa 0,1 mm 3,6 km/h (1 Bft) SO 225 0 min 0 W/m 14,1 C 15,2 C 10,4 km/h (2 Bft)
03/06/2012 06:10 15,1 C 93 % 1011,4 hPa 0,1 mm 6,8 km/h (2 Bft) SO 225 0 min 0 W/m 14,0 C 15,1 C 11,5 km/h (2 Bft)
03/06/2012 06:20 15,1 C 93 % 1011,6 hPa 0,0 mm 1,8 km/h (1 Bft) O-SO 247 0 min 0 W/m 14,0 C 15,1 C 4,3 km/h (1 Bft)
03/06/2012 06:30 15,1 C 93 % 1011,6 hPa 0,0 mm 7,2 km/h (2 Bft) SO 225 0 min 0 W/m 14,0 C 15,1 C 10,4 km/h (2 Bft)
03/06/2012 06:40 15,0 C 93 % 1011,9 hPa 0,1 mm 4,7 km/h (1 Bft) SO 225 0 min 0 W/m 13,9 C 15,0 C 7,9 km/h (2 Bft)
03/06/2012 06:50 14,9 C 93 % 1011,8 hPa 0,0 mm 4,7 km/h (1 Bft) SO 225 0 min 0 W/m 13,8 C 14,9 C 10,1 km/h (2 Bft)
03/06/2012 07:00 14,8 C 93 % 1012,0 hPa 0,1 mm 5,4 km/h (2 Bft) O-SO 247 0 min 0 W/m 13,7 C 14,8 C 5,4 km/h (2 Bft)
03/06/2012 07:10 14,8 C 93 % 1012,1 hPa 0,0 mm 4,3 km/h (1 Bft) O-SO 247 0 min 0 W/m 13,7 C 14,8 C 8,3 km/h (2 Bft)
03/06/2012 07:20 14,8 C 93 % 1012,1 hPa 0,0 mm 4,7 km/h (1 Bft) SO 225 0 min 0 W/m 13,7 C 14,8 C 4,7 km/h (1 Bft)
03/06/2012 07:30 14,8 C 93 % 1012,2 hPa 0,0 mm 5,4 km/h (2 Bft) O 270 0 min 0 W/m 13,7 C 14,8 C 10,8 km/h (2 Bft)
03/06/2012 07:40 14,8 C 93 % 1012,4 hPa 0,0 mm 5,4 km/h (2 Bft) SO 225 0 min 0 W/m 13,7 C 14,8 C 8,6 km/h (2 Bft)
03/06/2012 07:50 14,8 C 93 % 1012,5 hPa 0,0 mm 5,0 km/h (1 Bft) SO 225 0 min 0 W/m 13,7 C 14,8 C 8,3 km/h (2 Bft)
03/06/2012 08:00 14,8 C 93 % 1012,6 hPa 0,0 mm 7,6 km/h (2 Bft) S 180 0 min 0 W/m 13,7 C 14,8 C 7,6 km/h (2 Bft)
03/06/2012 08:10 14,8 C 93 % 1012,8 hPa 0,0 mm 5,8 km/h (2 Bft) SO 225 0 min 0 W/m 13,7 C 14,8 C 7,6 km/h (2 Bft)
03/06/2012 08:20 14,8 C 93 % 1012,8 hPa 0,0 mm 5,4 km/h (2 Bft) SO 225 0 min 0 W/m 13,7 C 14,8 C 7,6 km/h (2 Bft)
03/06/2012 08:30 14,8 C 93 % 1012,9 hPa 0,1 mm 4,3 km/h (1 Bft) SO 225 0 min 0 W/m 13,7 C 14,8 C 4,3 km/h (1 Bft)
03/06/2012 08:40 14,8 C 93 % 1012,9 hPa 0,0 mm 4,7 km/h (1 Bft) SO 225 0 min 0 W/m 13,7 C 14,8 C 9,4 km/h (2 Bft)
03/06/2012 08:50 14,8 C 93 % 1013,0 hPa 0,0 mm 5,0 km/h (1 Bft) SO 225 0 min 0 W/m 13,7 C 14,8 C 9,4 km/h (2 Bft)
03/06/2012 09:00 14,9 C 93 % 1013,1 hPa 0,0 mm 4,3 km/h (1 Bft) S-SO 202 0 min 0 W/m 13,8 C 14,9 C 8,6 km/h (2 Bft)
03/06/2012 09:10 14,9 C 93 % 1013,1 hPa 0,0 mm 4,3 km/h (1 Bft) SO 225 0 min 0 W/m 13,8 C 14,9 C 9,0 km/h (2 Bft)
03/06/2012 09:20 14,9 C 93 % 1013,2 hPa 0,0 mm 3,6 km/h (1 Bft) O-SO 247 0 min 0 W/m 13,8 C 14,9 C 7,6 km/h (2 Bft)
03/06/2012 09:30 14,9 C 93 % 1013,3 hPa 0,1 mm 9,0 km/h (2 Bft) O-NO 292 0 min 0 W/m 13,8 C 14,9 C 11,2 km/h (2 Bft)
03/06/2012 09:40 14,8 C 92 % 1013,4 hPa 0,1 mm 4,0 km/h (1 Bft) O-NO 292 0 min 0 W/m 13,5 C 14,8 C 9,0 km/h (2 Bft)
03/06/2012 09:50 14,8 C 92 % 1013,4 hPa 0,0 mm 4,3 km/h (1 Bft) SO 225 0 min 0 W/m 13,5 C 14,8 C 7,9 km/h (2 Bft)
03/06/2012 10:00 14,9 C 92 % 1013,6 hPa 0,0 mm 0,7 km/h (0 Bft) O-SO 247 0 min 0 W/m 13,6 C 14,9 C 3,6 km/h (1 Bft)
03/06/2012 10:10 15,2 C 92 % 1013,6 hPa 0,0 mm 0,7 km/h (0 Bft) O-SO 247 0 min 0 W/m 13,9 C 15,2 C 2,9 km/h (1 Bft)
03/06/2012 10:20 15,3 C 92 % 1013,7 hPa 0,0 mm 4,0 km/h (1 Bft) O-SO 247 0 min 0 W/m 14,0 C 15,3 C 10,8 km/h (2 Bft)
03/06/2012 10:30 15,4 C 92 % 1013,7 hPa 0,0 mm 0,4 km/h (0 Bft) O 270 0 min 0 W/m 14,1 C 15,4 C 4,0 km/h (1 Bft)
03/06/2012 10:40 15,6 C 92 % 1013,6 hPa 0,0 mm 1,4 km/h (1 Bft) O-NO 292 0 min 0 W/m 14,3 C 15,6 C 2,9 km/h (1 Bft)
03/06/2012 10:50 15,9 C 91 % 1013,5 hPa 0,0 mm 2,9 km/h (1 Bft) O 270 0 min 0 W/m 14,4 C 15,9 C 7,6 km/h (2 Bft)
03/06/2012 11:00 16,1 C 90 % 1013,5 hPa 0,0 mm 3,2 km/h (1 Bft) O 270 0 min 0 W/m 14,5 C 16,1 C 6,1 km/h (2 Bft)
03/06/2012 11:10 16,3 C 89 % 1013,7 hPa 0,0 mm 4,7 km/h (1 Bft) SO 225 0 min 0 W/m 14,5 C 16,3 C 10,4 km/h (2 Bft)
03/06/2012 11:20 16,1 C 88 % 1013,9 hPa 0,0 mm 5,8 km/h (2 Bft) SO 225 0 min 0 W/m 14,1 C 16,1 C 5,8 km/h (2 Bft)
03/06/2012 11:30 16,3 C 89 % 1013,8 hPa 0,0 mm 4,7 km/h (1 Bft) SO 225 0 min 0 W/m 14,5 C 16,3 C 4,7 km/h (1 Bft)
03/06/2012 11:40 16,8 C 87 % 1013,8 hPa 0,0 mm 1,1 km/h (1 Bft) O 270 0 min 0 W/m 14,6 C 16,8 C 4,0 km/h (1 Bft)
03/06/2012 11:50 17,2 C 86 % 1013,8 hPa 0,0 mm 6,8 km/h (2 Bft) SO 225 0 min 0 W/m 14,8 C 17,2 C 9,0 km/h (2 Bft)
03/06/2012 12:00 17,2 C 84 % 1013,9 hPa 0,0 mm 8,6 km/h (2 Bft) S-SO 202 0 min 0 W/m 14,5 C 17,2 C 10,8 km/h (2 Bft)
03/06/2012 12:10 17,3 C 85 % 1014,0 hPa 0,0 mm 3,6 km/h (1 Bft) NO 315 0 min 0 W/m 14,8 C 17,3 C 5,8 km/h (2 Bft)
03/06/2012 12:20 17,7 C 84 % 1013,9 hPa 0,0 mm 3,6 km/h (1 Bft) SO 225 0 min 0 W/m 15,0 C 17,7 C 3,6 km/h (1 Bft)
03/06/2012 12:30 17,8 C 82 % 1014,2 hPa 0,0 mm 5,8 km/h (2 Bft) O-NO 292 0 min 0 W/m 14,7 C 17,8 C 15,8 km/h (3 Bft)
03/06/2012 12:40 17,8 C 82 % 1014,1 hPa 0,0 mm 4,3 km/h (1 Bft) N 360 0 min 0 W/m 14,7 C 17,8 C 9,4 km/h (2 Bft)
03/06/2012 12:50 18,0 C 79 % 1014,2 hPa 0,0 mm 2,5 km/h (1 Bft) SO 225 0 min 0 W/m 14,3 C 18,0 C 4,3 km/h (1 Bft)
03/06/2012 13:00 18,3 C 78 % 1014,3 hPa 0,0 mm 3,2 km/h (1 Bft) SO 225 0 min 0 W/m 14,4 C 18,3 C 3,2 km/h (1 Bft)
03/06/2012 13:10 18,2 C 76 % 1014,4 hPa 0,0 mm 12,6 km/h (3 Bft) O-SO 247 0 min 0 W/m 13,9 C 18,2 C 19,1 km/h (3 Bft)
03/06/2012 13:20 18,3 C 75 % 1014,5 hPa 0,0 mm 6,1 km/h (2 Bft) O 270 0 min 0 W/m 13,8 C 18,3 C 6,1 km/h (2 Bft)
03/06/2012 13:30 18,3 C 74 % 1014,4 hPa 0,0 mm 6,5 km/h (2 Bft) SO 225 0 min 0 W/m 13,6 C 18,3 C 13,3 km/h (3 Bft)
03/06/2012 13:40 18,3 C 75 % 1014,4 hPa 0,0 mm 3,2 km/h (1 Bft) O-SO 247 0 min 0 W/m 13,8 C 18,3 C 6,8 km/h (2 Bft)
03/06/2012 13:50 18,1 C 74 % 1014,3 hPa 0,0 mm 6,5 km/h (2 Bft) O-SO 247 0 min 0 W/m 13,4 C 18,1 C 11,2 km/h (2 Bft)
03/06/2012 14:00 17,9 C 75 % 1014,4 hPa 0,0 mm 3,6 km/h (1 Bft) O 270 0 min 0 W/m 13,4 C 17,9 C 6,5 km/h (2 Bft)
03/06/2012 14:10 18,3 C 74 % 1014,5 hPa 0,0 mm 5,4 km/h (2 Bft) O-SO 247 0 min 0 W/m 13,6 C 18,3 C 10,4 km/h (2 Bft)
03/06/2012 14:20 18,6 C 73 % 1014,5 hPa 0,0 mm 4,3 km/h (1 Bft) S-SO 202 0 min 0 W/m 13,7 C 18,6 C 4,3 km/h (1 Bft)
03/06/2012 14:30 19,0 C 70 % 1014,3 hPa 0,0 mm 5,0 km/h (1 Bft) O-SO 247 0 min 0 W/m 13,4 C 19,0 C 9,0 km/h (2 Bft)
03/06/2012 14:40 19,1 C 69 % 1014,4 hPa 0,0 mm 5,4 km/h (2 Bft) O 270 0 min 0 W/m 13,3 C 19,1 C 11,9 km/h (2 Bft)
03/06/2012 14:50 18,9 C 70 % 1014,4 hPa 0,0 mm 7,9 km/h (2 Bft) S-SO 202 0 min 0 W/m 13,3 C 18,9 C 7,9 km/h (2 Bft)
03/06/2012 15:00 19,1 C 70 % 1014,4 hPa 0,0 mm 9,0 km/h (2 Bft) SO 225 0 min 0 W/m 13,5 C 19,1 C 14,4 km/h (3 Bft)
03/06/2012 15:10 19,1 C 72 % 1014,4 hPa 0,0 mm 6,8 km/h (2 Bft) S-SO 202 0 min 0 W/m 13,9 C 19,1 C 10,4 km/h (2 Bft)
03/06/2012 15:20 19,4 C 69 % 1014,3 hPa 0,0 mm 8,6 km/h (2 Bft) S-SO 202 0 min 0 W/m 13,6 C 19,4 C 8,6 km/h (2 Bft)
03/06/2012 15:30 19,3 C 67 % 1014,5 hPa 0,0 mm 3,6 km/h (1 Bft) S-SO 202 0 min 0 W/m 13,0 C 19,3 C 8,6 km/h (2 Bft)
03/06/2012 15:40 19,2 C 66 % 1014,4 hPa 0,0 mm 5,4 km/h (2 Bft) SO 225 0 min 0 W/m 12,7 C 19,2 C 7,9 km/h (2 Bft)
03/06/2012 15:50 19,2 C 67 % 1014,5 hPa 0,0 mm 6,5 km/h (2 Bft) S-SO 202 0 min 0 W/m 12,9 C 19,2 C 14,0 km/h (3 Bft)
03/06/2012 16:00 19,2 C 65 % 1014,6 hPa 0,0 mm 6,1 km/h (2 Bft) O-SO 247 0 min 0 W/m 12,5 C 19,2 C 15,5 km/h (3 Bft)
03/06/2012 16:10 18,9 C 66 % 1014,6 hPa 0,0 mm 1,4 km/h (1 Bft) O 270 0 min 0 W/m 12,4 C 18,9 C 4,3 km/h (1 Bft)
03/06/2012 16:20 18,9 C 67 % 1014,5 hPa 0,0 mm 3,2 km/h (1 Bft) SO 225 0 min 0 W/m 12,6 C 18,9 C 6,1 km/h (2 Bft)
03/06/2012 16:30 19,2 C 66 % 1014,5 hPa 0,0 mm 7,9 km/h (2 Bft) SO 225 0 min 0 W/m 12,7 C 19,2 C 15,5 km/h (3 Bft)
03/06/2012 16:40 19,3 C 67 % 1014,5 hPa 0,0 mm 4,3 km/h (1 Bft) O-SO 247 0 min 0 W/m 13,0 C 19,3 C 6,1 km/h (2 Bft)
_ Min-Heure 09:50 16:00 00:00 - 10:30 - - - - 16:10 09:50 10:40
Minimum _ 14,8 C 65 % 1009,4 hPa - 0,4 km/h (0 Bft) - - - - 12,4 C 14,8 C 2,9 km/h (1 Bft)
_ Max-Heure 15:20 09:30 16:10 02:10 02:00 - - 16:40 16:40 00:10 15:20 00:00
Maximum _ 19,4 C 93 % 1014,6 hPa 0,9 mm 14,0 km/h
SO (3 Bft)
- - 0 min 0 W/m 16,9 C 19,4 C 25,2 km/h
SO (4 Bft)
Moyenne _ 16,7 C 86 % 1012,7 hPa #3,8 mm 5,4 km/h (1 Bft) SO - #0 min. 0 W/m 14,3 C 16,7 C 8,8 km/h (2 Bft)
Saint Bonnet de Bellac- Haute Vienne - France